Location: Unspecified
(35.6238°N, 0.0000°E)
Time: 06:41:34
(UTC+00:00)

JUGNU - Visible Passes

Search period start: 04 April 2026 00:00
Search period end: 14 April 2026 00:00
Orbit: 833 x 860 km, 20.0° (Epoch: 29 March)

Date Brightness Start Highest point End Pass type
(mag) Time Alt. Az. Time Alt. Az. Time Alt. Az.
4 Apr ? 19:50:51 10° SW 19:54:27 17° S 19:55:54 15° SSE visible
5 Apr ? 19:34:30 10° SW 19:38:02 16° S 19:40:39 13° SSE visible
6 Apr ? 19:18:11 10° SW 19:21:37 16° S 19:25:05 10° SSE visible
7 Apr ? 19:01:52 10° SW 19:05:12 15° S 19:08:33 10° SSE visible
8 Apr ? 18:45:35 10° SW 18:48:47 15° S 18:52:00 10° SSE visible
